Notices

What's New in latest Release from April 7th, 2021:

- Updated Glossary, including Speed of Maximum Gust, and Total Hourly Precipitation

- Updated national and regional climate services offices contacts and prices information

- Addition of station inventory lists for 1981-2010, 1971-2000, and 1961-1990 Normals.

If you haven't already, please take our survey and provide feedback about our website: https://eccc.sondage-survey.ca/f/LanguageSelection.aspx?s=442ca660-fcf1-47c0-95a9-59707d6fd709

Hourly Data Report for October 30, 2019

SAINT JOHN A
NEW BRUNSWICK
Current Station Operator: NAVCAN

45°18'58.000" N
65°53'24.000" W
108.80 m
8104901
71609
YSJ

Download Data

Hourly Data (October 2019)
Hourly Data Report for October 30, 2019
TIME
LST
Temp Definition
°C
Dew Point Definition
°C
Rel Hum Definition
%
Precip. Amount Definition
mm

Wind Dir Definition
10's deg

Wind Spd Definition
km/h
Visibility Definition
km
Stn Press Definition
kPa
Hmdx Definition


Wind Chill Definition


Weather Definition


00:00 1.0 0.5 97   0 1 24.1 101.35     LegendNANA
01:00 5.9 5.4 96   22 8 24.1 101.35     LegendNANA
02:00 8.7 6.4 86   22 10 24.1 101.33     Cloudy
03:00 8.6 7.5 93   25 7 6.4 101.32     Drizzle,Fog
04:00 7.7 7.3 98   12 3 4.8 101.27     Fog
05:00 6.7 6.5 99   36 2 3.2 101.24     Drizzle,Fog
06:00 6.2 6.0 99   20 7 8.1 101.24     Fog
07:00 5.7 5.7 100   36 1 24.1 101.25     LegendNANA
08:00 7.7 7.7 100   36 3 24.1 101.30     Mostly Cloudy
09:00 9.0 8.9 100   27 5 8.1 101.28     Drizzle,Fog
10:00 9.5 9.4 99   26 9 24.1 101.28     LegendNANA
11:00 10.9 9.2 89   23 10 24.1 101.25     Mostly Cloudy
12:00 11.7 9.3 85   21 18 24.1 101.21     LegendNANA
13:00 12.2 9.8 85   20 12 24.1 101.18     LegendNANA
14:00 12.4 9.3 82   25 14 24.1 101.17     Cloudy
15:00 12.5 9.8 83   22 13 24.1 101.15     LegendNANA
16:00 12.0 10.0 88   20 13 24.1 101.09     LegendNANA
17:00 11.6 10.1 90   21 8 24.1 101.17     Mostly Cloudy
18:00 10.8 9.9 95   19 6 24.1 101.18     LegendNANA
19:00 10.8 10.0 94   22 4 24.1 101.21     LegendNANA
20:00 10.9 10.0 94   21 6 24.1 101.17     Cloudy
21:00 10.7 10.1 96   36 1 24.1 101.18     LegendNANA
22:00 10.8 10.4 97   17 4 24.1 101.15     LegendNANA
23:00 11.0 10.8 99   18 9 8.1 101.14     Fog

Notes on Data Quality.

Legend

  • E = Estimated
  • M = Missing
  • NA = Not Available*
  • [empty] = Indicates an unobserved value
Date modified: